TimePST,TemperatureF,Dew PointF,Humidity,Sea Level PressureIn,VisibilityMPH,Wind Direction,Wind SpeedMPH,Gust SpeedMPH,PrecipitationIn,Events,Conditions,WindDirDegrees,DateUTC
2:00 AM,47.1,-9999,N/A,-9999,-9999.0,SSE,18.4,-,N/A,,Unknown,160,2013-03-02 10:00:00
3:00 AM,47.3,-9999,N/A,-9999,-9999.0,SSE,18.4,-,N/A,,Unknown,160,2013-03-02 11:00:00
4:00 AM,47,,,,,SSE,16.1,,,,,160,2013-03-02 12:00:00
5:00 AM,47.1,-9999,N/A,-9999,-9999.0,South,15.0,-,N/A,,Unknown,170,2013-03-02 13:00:00
6:00 AM,47.3,-9999,N/A,-9999,-9999.0,South,11.5,-,N/A,,Unknown,170,2013-03-02 14:00:00
7:00 AM,46.2,-9999,N/A,-9999,-9999.0,SSE,12.7,-,N/A,,Unknown,150,2013-03-02 15:00:00
8:00 AM,46.2,-9999,N/A,-9999,-9999.0,SE,15.0,-,N/A,,Unknown,140,2013-03-02 16:00:00
9:00 AM,46.6,-9999,N/A,-9999,-9999.0,South,17.3,-,N/A,,Unknown,170,2013-03-02 17:00:00
10:00 AM,47,,,,,South,16.1,,,,,180,2013-03-02 18:00:00
10:00 AM,46.9,-9999,N/A,-9999,-9999.0,South,16.1,-,N/A,,Unknown,180,2013-03-02 18:00:00
11:00 AM,46.9,-9999,N/A,-9999,-9999.0,South,13.8,-,N/A,,Unknown,180,2013-03-02 19:00:00
12:00 PM,47.5,-9999,N/A,-9999,-9999.0,South,13.8,-,N/A,,Unknown,190,2013-03-02 20:00:00
1:00 PM,44.1,-9999,N/A,-9999,-9999.0,NW,19.6,-,N/A,,Unknown,320,2013-03-02 21:00:00
2:00 PM,44.6,-9999,N/A,-9999,-9999.0,NW,19.6,-,N/A,,Unknown,320,2013-03-02 22:00:00
3:00 PM,45.0,-9999,N/A,-9999,-9999.0,WNW,18.4,-,N/A,,Unknown,300,2013-03-02 23:00:00
4:00 PM,45,,,,,NW,18.4,,,,,310,2013-03-03 00:00:00
4:00 PM,45.0,-9999,N/A,-9999,-9999.0,NW,18.4,-,N/A,,Unknown,310,2013-03-03 00:00:00
5:00 PM,45.0,-9999,N/A,-9999,-9999.0,NW,26.5,-,N/A,,Unknown,320,2013-03-03 01:00:00
6:00 PM,45.0,-9999,N/A,-9999,-9999.0,NW,24.2,-,N/A,,Unknown,320,2013-03-03 02:00:00
7:00 PM,43.9,-9999,N/A,-9999,-9999.0,NW,24.2,29.9,N/A,,Unknown,320,2013-03-03 03:00:00
8:00 PM,42.1,-9999,N/A,-9999,-9999.0,NW,28.8,-,N/A,,Unknown,310,2013-03-03 04:00:00
9:00 PM,41.7,-9999,N/A,-9999,-9999.0,WNW,19.6,-,N/A,,Unknown,300,2013-03-03 05:00:00
10:00 PM,43,,,,,West,18.4,,,,,280,2013-03-03 06:00:00
10:00 PM,43.2,-9999,N/A,-9999,-9999.0,West,18.4,-,N/A,,Unknown,280,2013-03-03 06:00:00
11:00 PM,43.2,-9999,N/A,-9999,-9999.0,WNW,19.6,-,N/A,,Unknown,290,2013-03-03 07:00:00